TimeCST,TemperatureF,Dew PointF,Humidity,Sea Level PressureIn,VisibilityMPH,Wind Direction,Wind SpeedMPH,Gust SpeedMPH,PrecipitationIn,Events,Conditions,WindDirDegrees,DateUTC
12:15 AM,28.4,26.6,93,30.29,10.0,South,8.1,-,N/A,,Clear,180,2013-03-09 06:15:00
12:35 AM,30.2,26.6,86,30.28,10.0,South,9.2,-,N/A,,Clear,190,2013-03-09 06:35:00
12:55 AM,30.2,26.6,86,30.28,10.0,South,9.2,-,N/A,,Clear,180,2013-03-09 06:55:00
1:15 AM,30.2,26.6,86,30.27,10.0,South,8.1,-,N/A,,Clear,170,2013-03-09 07:15:00
1:35 AM,30.2,26.6,86,30.27,10.0,South,9.2,-,N/A,,Clear,180,2013-03-09 07:35:00
1:55 AM,30.2,28.4,93,30.26,10.0,South,9.2,-,N/A,,Clear,170,2013-03-09 07:55:00
2:15 AM,30.2,28.4,93,30.26,10.0,South,8.1,-,N/A,,Clear,170,2013-03-09 08:15:00
2:35 AM,30.2,26.6,86,30.25,10.0,South,8.1,-,N/A,,Clear,180,2013-03-09 08:35:00
2:55 AM,30.2,28.4,93,30.23,10.0,South,8.1,-,N/A,,Clear,170,2013-03-09 08:55:00
3:15 AM,30.2,28.4,93,30.23,10.0,SSE,10.4,-,N/A,,Clear,160,2013-03-09 09:15:00
3:35 AM,32.0,28.4,87,30.23,10.0,SSE,11.5,-,N/A,,Clear,160,2013-03-09 09:35:00
3:55 AM,32.0,28.4,87,30.23,10.0,South,10.4,-,N/A,,Clear,170,2013-03-09 09:55:00
4:15 AM,32.0,28.4,87,30.23,10.0,South,9.2,-,N/A,,Clear,170,2013-03-09 10:15:00
4:35 AM,33.8,28.4,81,30.22,10.0,SSE,10.4,-,N/A,,Clear,160,2013-03-09 10:35:00
4:55 AM,33.8,28.4,81,30.21,10.0,SSE,9.2,-,N/A,,Clear,150,2013-03-09 10:55:00
5:15 AM,33.8,28.4,81,30.22,10.0,South,9.2,-,N/A,,Clear,170,2013-03-09 11:15:00
5:35 AM,33.8,28.4,81,30.22,10.0,South,11.5,16.1,N/A,,Clear,170,2013-03-09 11:35:00
5:55 AM,33.8,28.4,81,30.21,10.0,SSE,11.5,-,N/A,,Clear,160,2013-03-09 11:55:00
6:15 AM,33.8,28.4,81,30.21,10.0,SSE,10.4,-,N/A,,Clear,160,2013-03-09 12:15:00
6:35 AM,33.8,28.4,81,30.21,10.0,SSE,11.5,17.3,N/A,,Clear,160,2013-03-09 12:35:00
6:55 AM,33.8,28.4,81,30.20,10.0,South,9.2,-,N/A,,Clear,170,2013-03-09 12:55:00
7:15 AM,35.6,28.4,75,30.20,10.0,South,11.5,16.1,N/A,,Clear,170,2013-03-09 13:15:00
7:35 AM,35.6,28.4,75,30.19,10.0,South,13.8,18.4,N/A,,Clear,170,2013-03-09 13:35:00
7:55 AM,35.6,28.4,75,30.19,10.0,South,13.8,20.7,N/A,,Scattered Clouds,170,2013-03-09 13:55:00
8:15 AM,35.6,28.4,75,30.18,10.0,South,13.8,18.4,N/A,,Mostly Cloudy,170,2013-03-09 14:15:00
8:35 AM,35.6,28.4,75,30.17,10.0,SSE,13.8,-,N/A,,Overcast,160,2013-03-09 14:35:00
8:55 AM,35.6,28.4,75,30.18,10.0,South,13.8,19.6,N/A,,Overcast,170,2013-03-09 14:55:00
9:15 AM,35.6,28.4,75,30.17,10.0,South,13.8,-,N/A,,Overcast,180,2013-03-09 15:15:00
9:35 AM,35.6,28.4,75,30.16,9.0,South,16.1,21.9,N/A,,Overcast,180,2013-03-09 15:35:00
9:55 AM,35.6,28.4,75,30.15,10.0,South,21.9,25.3,N/A,,Overcast,170,2013-03-09 15:55:00
10:15 AM,35.6,30.2,81,30.14,10.0,South,17.3,26.5,N/A,,Overcast,180,2013-03-09 16:15:00
10:35 AM,35.6,30.2,81,30.12,10.0,SSE,19.6,25.3,N/A,,Overcast,160,2013-03-09 16:35:00
10:55 AM,35.6,30.2,81,30.10,10.0,SSE,19.6,25.3,N/A,,Overcast,160,2013-03-09 16:55:00
11:15 AM,35.6,30.2,81,30.08,10.0,SSE,19.6,25.3,N/A,,Overcast,150,2013-03-09 17:15:00
11:35 AM,35.6,30.2,81,30.08,10.0,SSE,17.3,24.2,N/A,,Overcast,160,2013-03-09 17:35:00
11:55 AM,35.6,30.2,81,30.09,8.0,South,19.6,25.3,N/A,,Overcast,170,2013-03-09 17:55:00
12:15 PM,35.6,30.2,81,30.08,10.0,South,13.8,20.7,N/A,,Overcast,170,2013-03-09 18:15:00
12:35 PM,35.6,30.2,81,30.07,10.0,South,13.8,21.9,N/A,,Overcast,170,2013-03-09 18:35:00
12:55 PM,35.6,30.2,81,30.05,10.0,SSE,18.4,27.6,N/A,,Overcast,160,2013-03-09 18:55:00
1:15 PM,35.6,30.2,81,30.04,10.0,South,15.0,20.7,N/A,,Overcast,170,2013-03-09 19:15:00
1:35 PM,35.6,32.0,87,30.04,10.0,SSE,18.4,21.9,N/A,,Overcast,150,2013-03-09 19:35:00
1:55 PM,35.6,30.2,81,30.04,10.0,SSE,13.8,24.2,N/A,,Overcast,160,2013-03-09 19:55:00
2:15 PM,35.6,30.2,81,30.03,10.0,SSE,13.8,21.9,N/A,,Overcast,160,2013-03-09 20:15:00
2:35 PM,35.6,30.2,81,30.02,10.0,SSE,15.0,23.0,N/A,,Overcast,150,2013-03-09 20:35:00
2:55 PM,35.6,30.2,81,30.01,10.0,SSE,17.3,-,N/A,,Overcast,150,2013-03-09 20:55:00
3:15 PM,37.4,30.2,75,30.00,10.0,SSE,16.1,23.0,N/A,,Overcast,150,2013-03-09 21:15:00
3:35 PM,37.4,30.2,75,29.99,10.0,South,15.0,24.2,N/A,,Overcast,170,2013-03-09 21:35:00
3:55 PM,37.4,30.2,75,29.98,10.0,SSE,16.1,21.9,N/A,,Overcast,160,2013-03-09 21:55:00
4:15 PM,37.4,28.4,70,29.97,10.0,SSE,15.0,24.2,N/A,,Overcast,160,2013-03-09 22:15:00
4:35 PM,37.4,28.4,70,29.96,10.0,SSE,15.0,24.2,N/A,,Overcast,160,2013-03-09 22:35:00
4:55 PM,37.4,28.4,70,29.96,10.0,SSE,18.4,25.3,N/A,,Overcast,160,2013-03-09 22:55:00
5:15 PM,37.4,30.2,75,29.95,10.0,SSE,16.1,21.9,N/A,,Overcast,150,2013-03-09 23:15:00
5:35 PM,35.6,30.2,81,29.94,8.0,SSE,16.1,25.3,0.01,,Overcast,150,2013-03-09 23:35:00
5:55 PM,35.6,30.2,81,29.93,6.0,SSE,17.3,23.0,0.04,,Overcast,150,2013-03-09 23:55:00
6:15 PM,35.6,30.2,81,29.92,6.0,SSE,19.6,25.3,0.02,,Overcast,150,2013-03-10 00:15:00
6:35 PM,35.6,30.2,81,29.91,8.0,SSE,20.7,25.3,0.05,,Overcast,150,2013-03-10 00:35:00
6:55 PM,35.6,32.0,87,29.90,7.0,SSE,20.7,26.5,0.08,,Overcast,150,2013-03-10 00:55:00
7:15 PM,35.6,32.0,87,29.90,6.0,SSE,18.4,27.6,0.03,,Overcast,160,2013-03-10 01:15:00
7:35 PM,35.6,32.0,87,29.90,8.0,SSE,17.3,24.2,0.05,,Overcast,150,2013-03-10 01:35:00
7:55 PM,35.6,32.0,87,29.89,8.0,SSE,17.3,23.0,0.06,,Overcast,150,2013-03-10 01:55:00
8:15 PM,35.6,32.0,87,29.89,5.0,SSE,18.4,26.5,0.03,,Overcast,150,2013-03-10 02:15:00
8:35 PM,35.6,32.0,87,29.89,5.0,SSE,17.3,26.5,0.08,,Overcast,160,2013-03-10 02:35:00
8:55 PM,35.6,33.8,93,29.88,5.0,SSE,17.3,26.5,0.11,,Overcast,160,2013-03-10 02:55:00
9:15 PM,37.4,33.8,87,29.87,6.0,South,18.4,24.2,0.02,,Mostly Cloudy,170,2013-03-10 03:15:00
9:35 PM,37.4,33.8,87,29.88,7.0,South,17.3,27.6,0.05,,Overcast,170,2013-03-10 03:35:00
9:55 PM,37.4,33.8,87,29.87,7.0,SSE,16.1,27.6,0.08,,Overcast,160,2013-03-10 03:55:00
10:15 PM,37.4,33.8,87,29.87,7.0,SSE,16.1,23.0,0.01,,Overcast,160,2013-03-10 04:15:00
10:35 PM,37.4,33.8,87,29.86,7.0,SSE,18.4,21.9,0.02,,Overcast,160,2013-03-10 04:35:00
10:55 PM,37.4,33.8,87,29.85,8.0,SSE,15.0,20.7,0.02,,Overcast,160,2013-03-10 04:55:00
11:15 PM,37.4,33.8,87,29.85,7.0,South,15.0,20.7,N/A,,Overcast,170,2013-03-10 05:15:00
11:35 PM,37.4,33.8,87,29.84,7.0,South,15.0,21.9,N/A,,Overcast,170,2013-03-10 05:35:00
11:55 PM,37.4,33.8,87,29.84,7.0,South,15.0,25.3,N/A,,Overcast,170,2013-03-10 05:55:00